User: anonymous   Login
Location: Unspecified
(0.0000°N, 0.0000°E)
Time: 14:15:00
(UTC+02:00)
Language:

Cosmos 1536 - Orbit

View from above orbital plane
View from above orbital plane
View from above satellite
View from above satellite

Ground track
Ground track

The orbit data is extracted from the following two-line orbital elements,

1 14699U 84013A   17172.77704794 +.00000582 +00000-0 +38858-4 0  9999
2 14699 082.5257 325.0822 0013697 044.2243 316.0076 15.05070848792624
Epoch (UTC): 21 June 2017 18:38:56
Eccentricity: 0.0013697
inclination: 82.5257°
perigee height: 542 km
apogee height: 561 km
right ascension of ascending node: 325.0822°
argument of perigee: 44.2243°
revolutions per day: 15.05070848
mean anomaly at epoch: 316.0076°
orbit number at epoch: 79262

The dashed part of the orbit path shows where the satellite is in the earth's shadow,  

DLR